[[{"header":{"parameterUnit":"m.s-1","parameterCategory":1,"la1":30.2992,"la2":30.254,"lo1":-89.0895,"lo2":-89.0443,"dy":0.0025,"dx":0.0025,"nx":19,"ny":19,"refTime":"2026-05-23T09:00:00:Z","depth":0,"parameterNumber":2,"parameterNumberName":"U-component_of_WINDS"},"data":[0,0,0,-3.9359,-3.936,-3.94,-3.94,-3.9475,-3.9476,0,0,0,0,0,0,0,0,0,0,0,-3.9362,-3.9363,-3.9359,-3.936,-3.94,-3.94,-3.9475,-3.9476,0,0,0,0,0,0,0,0,0,0,0,-3.9361,-3.9362,-3.9364,-3.936,-3.94,-3.94,-3.9475,-3.9436,0,0,0,0,0,0,0,0,0,0,-3.9393,-3.941,-3.9362,-3.9364,-3.9361,-3.94,-3.94,-3.9434,-3.9438,-3.9467,0,-3.9497,0,-3.9488,-3.9483,-3.9483,0,0,0,-3.9349,-3.9406,-3.9404,-3.9364,-3.9361,-3.94,-3.9379,-3.9436,-3.9441,-3.9473,-3.9498,-3.95,-3.9489,-3.9483,-3.9484,-3.9688,-3.9689,0,0,-3.9347,-3.9376,-3.94,-3.9408,-3.9404,-3.9378,-3.938,-3.9439,-3.9467,-3.9498,-3.9501,-3.949,-3.9484,-3.9485,-3.9687,-3.9688,0,0,0,-3.9348,-3.9376,-3.9371,-3.9406,-3.9411,-3.9379,-3.9382,-3.9464,-3.9461,-3.9502,-3.9491,-3.9484,-3.9486,-3.9685,-3.9687,-3.9788,0,0,0,-3.9346,-3.9376,-3.9371,-3.9389,-3.9411,-3.9438,-3.9407,-3.9457,-3.9462,-3.9491,-3.9484,-3.9487,-3.9683,-3.9686,-3.9782,-3.9831,0,0,0,-3.9354,-3.9377,-3.9388,-3.9391,-3.9409,-3.9437,-3.9436,-3.9457,-3.9457,-3.9483,-3.9487,-3.9682,-3.9686,-3.9776,-3.9821,-3.9892,0,0,0,-3.9371,-3.9477,-3.939,-3.9505,-3.9409,-3.95,-3.9435,-3.9501,-3.9536,-3.9485,-3.9683,-3.9687,-3.9775,-3.9816,-3.9887,-3.9956,-3.9989,0,0,-3.9522,-3.9497,-3.9562,-3.9485,-3.9599,-3.9491,-3.962,-3.9623,-3.9598,-3.9659,-3.9664,-3.9784,-3.9821,-3.9891,-4.0163,-4.0189,0,0,0,-3.962,-3.9667,-3.9691,-3.9726,-3.9732,-3.974,-3.9721,-3.9723,-3.9773,-3.9636,-3.9829,-3.985,-3.989,-3.9922,-3.9944,-3.9976,-3.9703,-3.9703,-3.9703,-3.9875,-3.9838,-3.9944,-3.9912,-3.9947,-3.9927,-3.9951,-3.9949,-3.9902,-3.9948,-3.9965,-4.0134,-4.0173,-4.0189,-4.0223,-4.0001,-4.0001,-4.0001,-4.0002,-4.0092,-4.0152,-4.0087,-4.0166,-4.0127,-4.0192,-4.0177,-4.0141,-4.0196,-4.0118,-4.0152,-4.0069,-4.0219,-4.0246,-4.0009,-4.0008,-4.0007,-4.0006,-4.0005,-4.0254,-4.0276,-4.0277,-4.0323,-4.0364,-4.0328,-4.0384,-4.0346,-4.0311,-4.0344,-4.0357,-4.0355,-4.0347,-4.0353,-4.0354,-4.0355,-4.0355,-4.0356,-4.0356,-4.042,-4.0418,-4.0469,-4.0486,-4.0503,-4.0521,-4.0503,-4.0519,-4.0527,-4.0495,-4.0494,-4.0442,-4.0241,-4.0191,-4.0365,-4.0363,-4.0362,-4.0361,-4.0361,-4.065,-4.0593,-4.0673,-4.069,-4.0706,-4.0748,-4.07,-4.0736,-4.0744,-4.0772,-4.0713,-4.0572,-4.0543,-4.0525,-4.0483,-4.0722,-4.0722,-4.0722,-4.0722,-4.0786,-4.0768,-4.0841,-4.0872,-4.0897,-4.0862,-4.0953,-4.094,-4.0918,-4.092,-4.0881,-4.0822,-4.0806,-4.0786,-4.0763,-4.0723,-4.1017,-4.1018,-4.1018,-4.0924,-4.0908,-4.0992,-4.097,-4.0979,-4.0988,-4.1073,-4.111,-4.1073,-4.1029,-4.0921,-4.0909,-4.0814,-4.0785,-4.0737,-4.0701,-4.0627,0,0]},{"header":{"parameterUnit":"m.s-1","parameterCategory":1,"la1":30.2992,"la2":30.254,"lo1":-89.0895,"lo2":-89.0443,"dy":0.0025,"dx":0.0025,"nx":19,"ny":19,"refTime":"2026-05-23T09:00:00:Z","depth":0,"parameterNumber":3,"parameterNumberName":"V-component_of_WINDS"},"data":[0,0,0,1.3791,1.3793,1.3877,1.3878,1.3985,1.3986,0,0,0,0,0,0,0,0,0,0,0,1.3767,1.3768,1.3791,1.3793,1.3877,1.3878,1.3985,1.3986,0,0,0,0,0,0,0,0,0,0,0,1.3767,1.3767,1.3768,1.3794,1.3877,1.3878,1.3984,1.3921,0,0,0,0,0,0,0,0,0,0,1.3839,1.3817,1.3767,1.3768,1.3794,1.3877,1.3878,1.3918,1.3925,1.3947,0,1.3967,0,1.3978,1.3993,1.3993,0,0,0,1.3793,1.3811,1.3834,1.3769,1.3795,1.3877,1.3839,1.3922,1.393,1.3956,1.3969,1.3972,1.398,1.3994,1.3994,1.4125,1.4125,0,0,1.3788,1.3782,1.3828,1.3839,1.3827,1.3837,1.3842,1.3927,1.3939,1.3969,1.3975,1.3982,1.3994,1.3995,1.4124,1.4125,0,0,0,1.3775,1.3779,1.3799,1.3835,1.385,1.3839,1.3845,1.3936,1.3943,1.3976,1.3983,1.3995,1.3996,1.4124,1.4124,1.415,0,0,0,1.3772,1.3771,1.3797,1.3794,1.3848,1.3894,1.3852,1.3937,1.3947,1.3982,1.3995,1.3997,1.4123,1.4124,1.4148,1.4163,0,0,0,1.3761,1.377,1.3782,1.3794,1.383,1.3893,1.3905,1.3939,1.3951,1.3993,1.3998,1.4122,1.4124,1.4146,1.4159,1.4195,0,0,0,1.3747,1.3803,1.3783,1.3848,1.3829,1.3908,1.3904,1.3963,1.4003,1.3996,1.4123,1.4124,1.4145,1.4158,1.4193,1.4224,1.4236,0,0,1.3814,1.3811,1.385,1.3834,1.3916,1.3896,1.3981,1.4023,1.4032,1.4093,1.4096,1.4149,1.4159,1.4195,1.4309,1.4319,0,0,0,1.3869,1.3897,1.392,1.3958,1.3992,1.4022,1.4052,1.4067,1.412,1.4063,1.4172,1.4178,1.4199,1.4214,1.4223,1.4241,1.4131,1.4131,1.4131,1.3954,1.3964,1.4029,1.405,1.4087,1.4117,1.4148,1.4174,1.4172,1.4198,1.4216,1.4284,1.4302,1.4308,1.4327,1.4234,1.4234,1.4234,1.4234,1.4053,1.4094,1.4092,1.4154,1.4164,1.4217,1.4249,1.4246,1.4296,1.4271,1.429,1.4262,1.4318,1.4335,1.4236,1.4236,1.4235,1.4235,1.4235,1.4109,1.413,1.4149,1.4206,1.4248,1.4267,1.4316,1.4323,1.433,1.4349,1.4369,1.4369,1.4369,1.4359,1.4359,1.4359,1.4359,1.4359,1.436,1.4159,1.418,1.422,1.4262,1.4288,1.4323,1.4355,1.4381,1.4411,1.4412,1.4412,1.4408,1.4322,1.43,1.4363,1.4363,1.4362,1.4362,1.4361,1.4254,1.4234,1.4296,1.4322,1.4372,1.4414,1.4424,1.4475,1.4498,1.4521,1.4514,1.445,1.4446,1.444,1.4421,1.4512,1.4512,1.4512,1.4512,1.4301,1.4301,1.4366,1.4407,1.4449,1.4464,1.4534,1.456,1.4584,1.4598,1.4586,1.4563,1.4556,1.4557,1.4548,1.4531,1.4647,1.4647,1.4647,1.436,1.4364,1.4422,1.4446,1.4486,1.452,1.4586,1.4633,1.4656,1.4653,1.461,1.4604,1.4566,1.4554,1.4549,1.4534,1.4503,0,0]}]]